When you browse on this site, cookies collect data to enhance your experience and personalize the content and advertising you see.
Visit our Privacy Policy to learn more. By continuing to use the site, you agree to this use of cookies and data.
  • In Romania
  • List of Countries
  • For 7 days
  • Water Temperature
  • Weather Map
  • Weather Widgets
  • user-avatar
    Login

    Hourly Weather Francistown

    Today, 23 February, Sunday

    Time Temperature Precipitation Wind Pressure Humidity
    00:00 +28°C° 0.1 mm 1 mps 675 mmHg 56%
    01:00 +27°C° 0.1 mm 2 mps 674 mmHg 57%
    02:00 +27°C° 0 mm 2 mps 675 mmHg 56%
    03:00 +26°C° 0 mm 1 mps 674 mmHg 58%
    04:00 +26°C° 0 mm 1 mps 674 mmHg 61%
    05:00 +23°C° 0 mm 0 mps 674 mmHg 64%
    06:00 +26°C° 0 mm 1 mps 675 mmHg 59%
    07:00 +28°C° 0 mm 1 mps 675 mmHg 55%
    08:00 +29°C° 0 mm 3 mps 676 mmHg 51%
    09:00 +30°C° 0 mm 3 mps 677 mmHg 46%
    10:00 +33°C° 0 mm 3 mps 677 mmHg 42%
    11:00 +35°C° 0 mm 3 mps 677 mmHg 37%
    12:00 +35°C° 0.1 mm 2 mps 676 mmHg 36%
    13:00 +35°C° 0.1 mm 2 mps 676 mmHg 36%
    14:00 +34°C° 0 mm 2 mps 676 mmHg 39%
    15:00 +34°C° 0 mm 3 mps 676 mmHg 40%
    16:00 +33°C° 0 mm 4 mps 675 mmHg 41%
    17:00 +33°C° 0 mm 5 mps 675 mmHg 42%
    18:00 +29°C° 0.2 mm 7 mps 675 mmHg 54%
    19:00 +26°C° 0.2 mm 8 mps 675 mmHg 66%
    20:00 +22°C° 0.2 mm 10 mps 676 mmHg 77%
    21:00 +22°C° 0.2 mm 10 mps 676 mmHg 77%
    22:00 +22°C° 0.2 mm 10 mps 677 mmHg 77%
    23:00 +21°C° 0.2 mm 10 mps 677 mmHg 78%

    Tomorrow, 24 February, Monday

    Time Temperature Precipitation Wind Pressure Humidity
    00:00 +21°C° 0 mm 10 mps 677 mmHg 78%
    01:00 +19°C° 0 mm 9 mps 677 mmHg 78%
    02:00 +19°C° 0 mm 9 mps 677 mmHg 78%
    03:00 +19°C° 0 mm 9 mps 677 mmHg 78%
    04:00 +18°C° 0 mm 9 mps 677 mmHg 79%
    05:00 +18°C° 0 mm 9 mps 677 mmHg 79%
    06:00 +18°C° 0 mm 9 mps 677 mmHg 78%
    07:00 +18°C° 0 mm 9 mps 678 mmHg 77%
    08:00 +18°C° 0 mm 8 mps 679 mmHg 76%
    09:00 +18°C° 0 mm 8 mps 679 mmHg 74%
    10:00 +18°C° 0 mm 8 mps 679 mmHg 71%
    11:00 +18°C° 0 mm 8 mps 679 mmHg 69%
    12:00 +20°C° 0 mm 7 mps 678 mmHg 67%
    13:00 +21°C° 0 mm 7 mps 678 mmHg 64%
    14:00 +21°C° 0 mm 7 mps 678 mmHg 61%
    15:00 +22°C° 0 mm 6 mps 678 mmHg 60%
    16:00 +22°C° 0 mm 6 mps 678 mmHg 58%
    17:00 +23°C° 0 mm 6 mps 677 mmHg 56%
    18:00 +22°C° 0 mm 5 mps 678 mmHg 59%
    19:00 +21°C° 0 mm 4 mps 678 mmHg 62%
    20:00 +21°C° 0 mm 3 mps 678 mmHg 65%
    21:00 +20°C° 0 mm 4 mps 678 mmHg 66%
    22:00 +20°C° 0 mm 4 mps 678 mmHg 68%
    23:00 +20°C° 0 mm 4 mps 678 mmHg 70%

    Day after tomorrow, 25 February, Tuesday

    Time Temperature Precipitation Wind Pressure Humidity
    00:00 +19°C° 0 mm 4 mps 678 mmHg 72%
    01:00 +19°C° 0 mm 5 mps 677 mmHg 74%
    02:00 +17°C° 0 mm 6 mps 677 mmHg 77%
    03:00 +17°C° 0 mm 6 mps 677 mmHg 77%
    04:00 +17°C° 0 mm 6 mps 677 mmHg 77%
    05:00 +17°C° 0 mm 7 mps 677 mmHg 77%
    06:00 +17°C° 0 mm 7 mps 677 mmHg 77%
    07:00 +17°C° 0 mm 7 mps 678 mmHg 77%
    08:00 +17°C° 0 mm 7 mps 678 mmHg 76%
    09:00 +18°C° 0 mm 7 mps 678 mmHg 74%
    10:00 +18°C° 0 mm 7 mps 678 mmHg 72%
    11:00 +20°C° 0 mm 6 mps 677 mmHg 70%
    12:00 +22°C° 0 mm 6 mps 677 mmHg 58%
    13:00 +26°C° 0 mm 6 mps 677 mmHg 46%
    14:00 +29°C° 0 mm 6 mps 677 mmHg 34%
    15:00 +29°C° 0 mm 6 mps 677 mmHg 32%
    16:00 +29°C° 0 mm 6 mps 676 mmHg 30%
    17:00 +29°C° 0 mm 6 mps 676 mmHg 29%
    18:00 +27°C° 0 mm 5 mps 676 mmHg 34%
    19:00 +25°C° 0 mm 5 mps 676 mmHg 39%
    20:00 +22°C° 0 mm 4 mps 676 mmHg 45%
    21:00 +21°C° 0 mm 4 mps 676 mmHg 48%
    22:00 +20°C° 0 mm 3 mps 676 mmHg 52%
    23:00 +19°C° 0 mm 3 mps 677 mmHg 56%

    26 February, Wednesday

    Time Temperature Precipitation Wind Pressure Humidity
    00:00 +19°C° 0 mm 3 mps 676 mmHg 60%
    01:00 +18°C° 0 mm 3 mps 676 mmHg 63%
    02:00 +17°C° 0 mm 3 mps 676 mmHg 67%
    03:00 +17°C° 0 mm 3 mps 676 mmHg 70%
    04:00 +16°C° 0 mm 3 mps 675 mmHg 74%
    05:00 +16°C° 0 mm 3 mps 675 mmHg 77%
    06:00 +17°C° 0 mm 3 mps 676 mmHg 71%
    07:00 +19°C° 0 mm 3 mps 676 mmHg 65%
    08:00 +20°C° 0 mm 4 mps 677 mmHg 59%
    09:00 +23°C° 0 mm 4 mps 677 mmHg 48%
    10:00 +27°C° 0 mm 4 mps 678 mmHg 38%
    11:00 +30°C° 0 mm 4 mps 678 mmHg 27%
    12:00 +32°C° 0 mm 5 mps 677 mmHg 24%
    13:00 +33°C° 0 mm 5 mps 677 mmHg 21%
    14:00 +35°C° 0 mm 5 mps 676 mmHg 19%
    15:00 +34°C° 0 mm 5 mps 676 mmHg 19%
    16:00 +34°C° 0 mm 5 mps 675 mmHg 19%
    17:00 +33°C° 0 mm 5 mps 675 mmHg 20%
    18:00 +30°C° 0 mm 5 mps 675 mmHg 26%
    19:00 +28°C° 0 mm 5 mps 675 mmHg 31%
    20:00 +25°C° 0 mm 4 mps 675 mmHg 37%
    21:00 +23°C° 0 mm 4 mps 675 mmHg 40%
    22:00 +22°C° 0 mm 3 mps 675 mmHg 44%
    23:00 +21°C° 0 mm 3 mps 676 mmHg 47%

    27 February, Thursday

    Time Temperature Precipitation Wind Pressure Humidity
    00:00 +21°C° 0 mm 3 mps 675 mmHg 48%
    01:00 +20°C° 0 mm 3 mps 675 mmHg 49%
    02:00 +19°C° 0 mm 3 mps 675 mmHg 51%
    03:00 +19°C° 0 mm 3 mps 675 mmHg 55%
    04:00 +19°C° 0 mm 3 mps 675 mmHg 59%
    05:00 +18°C° 0 mm 3 mps 675 mmHg 63%
    06:00 +20°C° 0 mm 3 mps 675 mmHg 64%
    07:00 +22°C° 0 mm 3 mps 676 mmHg 64%
    08:00 +25°C° 0 mm 3 mps 676 mmHg 64%
    09:00 +27°C° 0 mm 2 mps 677 mmHg 51%
    10:00 +30°C° 0 mm 2 mps 677 mmHg 38%
    11:00 +34°C° 0 mm 2 mps 677 mmHg 26%
    12:00 +35°C° 0 mm 1 mps 677 mmHg 22%
    13:00 +36°C° 0 mm 1 mps 676 mmHg 19%
    14:00 +36°C° 0 mm 0 mps 676 mmHg 16%
    15:00 +37°C° 0 mm 1 mps 676 mmHg 15%
    16:00 +37°C° 0 mm 1 mps 675 mmHg 15%
    17:00 +37°C° 0 mm 2 mps 674 mmHg 15%
    18:00 +35°C° 0 mm 2 mps 674 mmHg 18%
    19:00 +31°C° 0 mm 3 mps 674 mmHg 21%
    20:00 +28°C° 0 mm 3 mps 674 mmHg 25%
    21:00 +27°C° 0 mm 3 mps 675 mmHg 28%
    22:00 +26°C° 0 mm 2 mps 675 mmHg 32%
    23:00 +25°C° 0 mm 2 mps 675 mmHg 36%

    28 February, Friday

    Time Temperature Precipitation Wind Pressure Humidity
    00:00 +25°C° 0 mm 2 mps 675 mmHg 39%
    01:00 +24°C° 0 mm 2 mps 675 mmHg 43%
    02:00 +23°C° 0 mm 2 mps 675 mmHg 46%
    03:00 +23°C° 0 mm 2 mps 675 mmHg 54%
    04:00 +23°C° 0 mm 2 mps 675 mmHg 62%
    05:00 +21°C° 0 mm 2 mps 675 mmHg 70%
    06:00 +24°C° 0 mm 2 mps 676 mmHg 66%
    07:00 +25°C° 0 mm 2 mps 676 mmHg 62%
    08:00 +27°C° 0 mm 1 mps 677 mmHg 58%
    09:00 +29°C° 0 mm 2 mps 677 mmHg 46%
    10:00 +33°C° 0 mm 3 mps 678 mmHg 34%
    11:00 +35°C° 0 mm 4 mps 678 mmHg 22%
    12:00 +36°C° 0 mm 5 mps 678 mmHg 20%
    13:00 +37°C° 0 mm 5 mps 677 mmHg 18%
    14:00 +39°C° 0 mm 6 mps 676 mmHg 16%
    15:00 +38°C° 0 mm 6 mps 676 mmHg 16%
    16:00 +38°C° 0 mm 6 mps 675 mmHg 17%
    17:00 +36°C° 0 mm 7 mps 675 mmHg 18%
    18:00 +34°C° 0 mm 6 mps 675 mmHg 23%
    19:00 +32°C° 0 mm 6 mps 676 mmHg 28%
    20:00 +29°C° 0 mm 6 mps 676 mmHg 34%
    21:00 +28°C° 0 mm 6 mps 676 mmHg 40%
    22:00 +27°C° 0 mm 6 mps 677 mmHg 46%
    23:00 +26°C° 0 mm 6 mps 677 mmHg 52%
    Show more